Flag Weather past 2 weeks in Toledo, Ohio, U.S.A.

Now
32 °F

Overcast.


Feels Like: 24 °F
Forecast: 28 / 33 °F
Wind: 9 mph from West

Location: Toledo Suburban Airport

Current Time: Nov 25, 2014 at 4:55:20 PM

Latest Report: Nov 25, 2014 at 4:15 PM


Visibility: 10 mi

Pressure: 30.13 "Hg

Humidity: 69%

Dew point: 23 °F

Location of ToledoLocation

Historic Weather in Toledo — Graph

°F

Toledo temperature yesterday

Maximum temperature yesterday: 59 °F (at 10:54 AM)
Minimum temperature yesterday: 36 °F (at 8:54 PM)
Average temperature yesterday: 49 °F

Past Weeks' High & Low Weather Summary

 TemperatureHumidityPressure
High64 °F (Nov 11, 11:54 AM)94% (Nov 11, 4:15 PM)30.50 "Hg (Nov 11, 4:15 PM)
Low12 °F (Nov 18, 4:35 AM)31% (Nov 10, 3:15 PM)29.10 "Hg (Nov 24, 2:34 AM)
Average34 °F70%30.00 "Hg
* Reported Nov 10 3:15 PM — Nov 25 3:35 PM, Toledo, Weather by CustomWeather, © 2014

Note: Actual official high and low records may vary slightly from our data, if they occured in-between our weather recording intervals... More about our weather records

Advertising

Toledo weather history for previous 24 hours

 ConditionsComfort  
Time TempWeatherWind HumidityBarometerVisibility
3:35 PM
Nov 25
32 °FOvercast.9 mph69%30.11 "Hg10 mi
3:15 PM32 °FOvercast.10 mph69%30.11 "Hg10 mi
2:54 PM32 °FOvercast.12 mph69%30.09 "Hg10 mi
2:35 PM32 °FOvercast.13 mph69%30.08 "Hg10 mi
2:15 PM32 °FOvercast.15 mph69%30.07 "Hg10 mi
1:54 PM34 °FMostly cloudy.13 mph65%30.06 "Hg10 mi
1:34 PM34 °FMostly cloudy.15 mph65%30.06 "Hg10 mi
1:15 PM32 °FMostly cloudy.12 mph69%30.05 "Hg10 mi
12:55 PM32 °FMostly cloudy.15 mph75%30.05 "Hg10 mi
12:34 PM32 °FOvercast.16 mph80%30.06 "Hg10 mi
12:15 PM32 °FOvercast.16 mph75%30.05 "Hg10 mi
11:54 AM32 °FOvercast.10 mph80%30.03 "Hg10 mi
11:35 AM32 °FOvercast.10 mph80%30.03 "Hg10 mi
11:15 AM32 °FOvercast.12 mph80%30.02 "Hg10 mi
10:54 AM32 °FOvercast.14 mph80%30.02 "Hg10 mi
10:35 AM32 °FOvercast.12 mph80%30.01 "Hg10 mi
10:15 AM32 °FOvercast.16 mph80%29.99 "Hg10 mi
9:54 AM34 °FOvercast.12 mph75%29.98 "Hg10 mi
9:34 AM34 °FOvercast.10 mph75%29.97 "Hg10 mi
9:15 AM34 °FOvercast.12 mph75%29.97 "Hg10 mi
8:55 AM34 °FOvercast.8 mph75%29.95 "Hg10 mi
8:34 AM34 °FOvercast.12 mph75%29.94 "Hg10 mi
8:15 AM32 °FOvercast.12 mph80%29.93 "Hg10 mi
7:54 AM32 °FOvercast.17 mph80%29.93 "Hg10 mi
7:35 AM32 °FOvercast.12 mph80%29.93 "Hg10 mi
7:15 AM34 °FOvercast.12 mph75%29.92 "Hg10 mi
6:54 AM34 °FOvercast.13 mph75%29.91 "Hg10 mi
6:35 AM34 °FOvercast.15 mph75%29.90 "Hg10 mi
6:15 AM34 °FOvercast.12 mph75%29.89 "Hg10 mi
5:55 AM34 °FOvercast.17 mph75%29.89 "Hg10 mi
5:15 AM34 °FOvercast.13 mph75%29.87 "Hg10 mi
4:54 AM34 °FOvercast.16 mph70%29.86 "Hg10 mi
4:35 AM34 °FOvercast.15 mph75%29.85 "Hg10 mi
4:15 AM34 °FOvercast.14 mph75%29.85 "Hg10 mi
3:54 AM34 °FMostly cloudy.14 mph75%29.84 "Hg10 mi
3:35 AM34 °FMostly cloudy.17 mph75%29.84 "Hg10 mi
3:15 AM34 °FOvercast.17 mph75%29.83 "Hg10 mi
2:54 AM34 °FOvercast.16 mph75%29.82 "Hg10 mi
2:34 AM34 °FOvercast.15 mph75%29.82 "Hg10 mi
2:15 AM34 °FOvercast.14 mph75%29.81 "Hg10 mi
1:55 AM34 °FOvercast.17 mph75%29.80 "Hg10 mi
1:34 AM34 °FOvercast.17 mph75%29.79 "Hg10 mi
1:15 AM34 °FOvercast.18 mph75%29.79 "Hg10 mi
12:54 AM36 °FMostly cloudy.18 mph70%29.78 "Hg10 mi
12:35 AM36 °FMostly cloudy.18 mph75%29.78 "Hg10 mi
12:15 AM36 °FMostly cloudy.14 mph75%29.77 "Hg10 mi
11:54 PM
Nov 24
36 °FOvercast.17 mph75%29.77 "Hg10 mi
11:35 PM36 °FOvercast.13 mph75%29.76 "Hg10 mi
10:55 PM36 °FOvercast.16 mph75%29.74 "Hg10 mi
10:35 PM36 °FOvercast.18 mph75%29.73 "Hg10 mi
9:55 PM36 °FOvercast.21 mph75%29.71 "Hg10 mi
9:34 PM36 °FOvercast.21 mph75%29.70 "Hg10 mi
9:15 PM36 °FMostly cloudy.17 mph75%29.69 "Hg10 mi
8:54 PM36 °FMostly cloudy.21 mph75%29.68 "Hg10 mi
8:35 PM37 °FMostly cloudy.22 mph70%29.67 "Hg10 mi
8:15 PM37 °FOvercast.18 mph70%29.67 "Hg10 mi
7:54 PM37 °FMostly cloudy.14 mph75%29.66 "Hg10 mi
7:35 PM37 °FMostly cloudy.21 mph75%29.65 "Hg10 mi
6:54 PM37 °FOvercast.18 mph81%29.62 "Hg10 mi
6:34 PM37 °FOvercast.18 mph75%29.62 "Hg10 mi
6:15 PM37 °FOvercast.18 mph75%29.60 "Hg10 mi
5:55 PM37 °FOvercast.22 mph70%29.59 "Hg10 mi
5:34 PM39 °FMostly cloudy.23 mph70%29.57 "Hg10 mi
5:15 PM41 °FOvercast.26 mph70%29.56 "Hg10 mi
4:54 PM41 °FMostly cloudy.20 mph70%29.54 "Hg10 mi
4:35 PM41 °FOvercast.26 mph70%29.53 "Hg10 mi
4:15 PM41 °FOvercast.21 mph70%29.52 "Hg10 mi
Weather by CustomWeather, © 2014

See weather overviewHow to use our weather pages